Powrót do katalogu

DGS 2-03

AktywnyNaukaSSO
NORAD 65262·PAYLOAD·🇨🇳 China
Ta nazwa satelity nie została jeszcze potwierdzona przez oficjalne źródła.

Wystrzelony Aug 19, 2025 z Jiuquan Satellite Launch Center

Loading…

Następne Przeloty (najbliższe 24 godziny)

TLE

ŚwieżeSource: Space-Track

Epoka: Sep 14, 2026, 14:01 UTC

1 65262U 25180D   26257.58427956  .00003483  00000-0  18435-3 0  9997
2 65262  97.5376  24.0322 0014239  16.8887 343.2817 15.16026173 59206

Śledź DGS 2-03 w czasie rzeczywistym z AllMySat

Download on the App Store